^^

..:: Storico WU ::..




Lo storico viene creato da WUnderground con i dati che la stazione Meteomincio invia al loro server. L' aggiornamento viene fatto ogni 5 minuti circa, tuttavia possono esserci intervalli pił ampi a causa di errori, interruzioni di servizio o problemi nell' invio tramite FTP.


Storico stazione MeteoMincio
Giorno Sommario per Agosto 13, 2022 Unità:  Inglese    Metrico   Entrambi
Giorno Settimana Mese Anno
  Max: Min: Media:
Temperatura: 84.2 °F 62.6 °F 73.9 °F
Dew Point: 64.4 °F 59 °F 61.5 °F
Umidità: 92% 42% 68%
Velocità vento: 7.5mph 0mph 3.3mph
Raffica: 10.6mph - -
Direzione- - SSW
Pressione: 30 in 29.9 in -
Precipitazioni: 0 in    
 
 
Tabulato Dati per Agosto 13, 2022
Ora Temperatura Dew Point Pressione Direzione Velocità vento Raffica Umidità Intensità pioggia (oraria) Info solare Situazione
00:04 64.4 °F 62.6 °F 30 in West 2.5 mph 3.7 mph 91% 0 in 0.00 W/m2 unknown
00:09 64.4 °F 62.6 °F 30 in West 3.1 mph 3.7 mph 91% 0 in 0.00 W/m2 unknown
00:14 64.4 °F 62.6 °F 30 in WNW 2.5 mph 3.7 mph 92% 0 in 0.00 W/m2 unknown
00:19 64.4 °F 62.6 °F 30 in NW 2.5 mph 3.7 mph 92% 0 in 0.00 W/m2 unknown
00:24 64.4 °F 62.6 °F 30 in WNW 2.5 mph 3.7 mph 92% 0 in 0.00 W/m2 unknown
00:29 64.4 °F 62.6 °F 30 in WNW 1.2 mph 3.1 mph 91% 0 in 0.00 W/m2 unknown
00:34 64.4 °F 62.6 °F 30 in NW 2.5 mph 3.7 mph 91% 0 in 0.00 W/m2 unknown
00:39 64.4 °F 62.6 °F 30 in NW 1.9 mph 3.7 mph 91% 0 in 0.00 W/m2 unknown
00:44 64.4 °F 62.6 °F 30 in NW 1.2 mph 3.1 mph 91% 0 in 0.00 W/m2 unknown
00:49 64.4 °F 62.6 °F 30 in WNW 1.9 mph 3.7 mph 91% 0 in 0.00 W/m2 unknown
00:54 64.4 °F 62.6 °F 30 in West 3.1 mph 3.7 mph 91% 0 in 0.00 W/m2 unknown
00:59 64.4 °F 62.6 °F 30 in West 3.7 mph 5 mph 92% 0 in 0.00 W/m2 unknown
01:04 64.4 °F 62.6 °F 30 in West 3.7 mph 5 mph 92% 0 in 0.00 W/m2 unknown
01:09 64.4 °F 62.6 °F 30 in WSW 3.7 mph 5 mph 92% 0 in 0.00 W/m2 unknown
01:14 64.4 °F 62.6 °F 30 in WSW 3.1 mph 3.7 mph 92% 0 in 0.00 W/m2 unknown
01:19 64.4 °F 62.6 °F 30 in WSW 3.1 mph 3.7 mph 92% 0 in 0.00 W/m2 unknown
01:24 64.4 °F 62.6 °F 30 in WSW 1.9 mph 3.7 mph 92% 0 in 0.00 W/m2 unknown
01:29 64.4 °F 62.6 °F 30 in WNW 2.5 mph 3.7 mph 92% 0 in 0.00 W/m2 unknown
01:34 64.4 °F 62.6 °F 30 in NW 1.2 mph 3.7 mph 92% 0 in 0.00 W/m2 unknown
01:39 64.4 °F 62.6 °F 30 in WNW 2.5 mph 3.7 mph 92% 0 in 0.00 W/m2 unknown
01:44 64.4 °F 62.6 °F 30 in WNW 2.5 mph 3.7 mph 92% 0 in 0.00 W/m2 unknown
01:49 64.4 °F 62.6 °F 30 in WNW 3.1 mph 3.7 mph 91% 0 in 0.00 W/m2 unknown
01:54 64.4 °F 62.6 °F 30 in NW 2.5 mph 3.7 mph 91% 0 in 0.00 W/m2 unknown
01:59 64.4 °F 62.6 °F 30 in WNW 1.9 mph 3.7 mph 91% 0 in 0.00 W/m2 unknown
02:04 64.4 °F 62.6 °F 30 in NW 1.9 mph 3.7 mph 91% 0 in 0.00 W/m2 unknown
02:09 64.4 °F 62.6 °F 30 in NW 1.9 mph 3.7 mph 92% 0 in 0.00 W/m2 unknown
02:14 64.4 °F 62.6 °F 30 in NNW 1.2 mph 3.7 mph 92% 0 in 0.00 W/m2 unknown
02:19 64.4 °F 62.6 °F 30 in NNW 1.9 mph 3.7 mph 92% 0 in 0.00 W/m2 unknown
02:24 64.4 °F 62.6 °F 30 in NNW 3.1 mph 3.7 mph 92% 0 in 0.00 W/m2 unknown
02:29 64.4 °F 62.6 °F 30 in WNW 3.7 mph 5 mph 91% 0 in 0.00 W/m2 unknown
02:34 64.4 °F 62.6 °F 30 in WNW 3.7 mph 5 mph 91% 0 in 0.00 W/m2 unknown
02:39 64.4 °F 62.6 °F 30 in NW 2.5 mph 5 mph 90% 0 in 0.00 W/m2 unknown
02:44 64.4 °F 62.6 °F 30 in NW 3.1 mph 3.7 mph 90% 0 in 0.00 W/m2 unknown
02:49 66.2 °F 62.6 °F 30 in NW 2.5 mph 3.7 mph 90% 0 in 0.00 W/m2 unknown
02:54 66.2 °F 62.6 °F 29.9 in WNW 2.5 mph 3.7 mph 90% 0 in 0.00 W/m2 unknown
02:59 66.2 °F 62.6 °F 29.9 in West 3.1 mph 3.7 mph 90% 0 in 0.00 W/m2 unknown
03:04 64.4 °F 62.6 °F 29.9 in West 3.1 mph 3.7 mph 90% 0 in 0.00 W/m2 unknown
03:09 64.4 °F 62.6 °F 29.9 in West 3.1 mph 3.7 mph 91% 0 in 0.00 W/m2 unknown
03:14 64.4 °F 62.6 °F 29.9 in WSW 4.3 mph 6.8 mph 91% 0 in 0.00 W/m2 unknown
03:19 64.4 °F 62.6 °F 29.9 in WSW 3.1 mph 6.8 mph 91% 0 in 0.00 W/m2 unknown
03:24 64.4 °F 62.6 °F 29.9 in West 1.9 mph 3.7 mph 91% 0 in 0.00 W/m2 unknown
03:29 64.4 °F 62.6 °F 29.9 in WNW 3.1 mph 3.7 mph 91% 0 in 0.00 W/m2 unknown
03:34 64.4 °F 62.6 °F 29.9 in West 3.1 mph 3.7 mph 91% 0 in 0.00 W/m2 unknown
03:39 64.4 °F 62.6 °F 29.9 in West 4.3 mph 6.8 mph 90% 0 in 0.00 W/m2 unknown
03:44 64.4 °F 62.6 °F 29.9 in West 5 mph 6.8 mph 90% 0 in 0.00 W/m2 unknown
03:49 64.4 °F 62.6 °F 29.9 in West 6.8 mph 8.1 mph 90% 0 in 0.00 W/m2 unknown
03:54 64.4 °F 62.6 °F 29.9 in West 6.2 mph 9.3 mph 89% 0 in 0.00 W/m2 unknown
03:59 64.4 °F 62.6 °F 29.9 in West 6.2 mph 8.7 mph 89% 0 in 0.00 W/m2 unknown
04:04 64.4 °F 60.8 °F 29.9 in West 6.2 mph 8.1 mph 89% 0 in 0.00 W/m2 unknown
04:09 64.4 °F 60.8 °F 29.9 in West 6.2 mph 8.1 mph 88% 0 in 0.00 W/m2 unknown
04:14 64.4 °F 60.8 °F 29.9 in West 6.2 mph 8.1 mph 88% 0 in 0.00 W/m2 unknown
04:19 64.4 °F 60.8 °F 29.9 in West 3.7 mph 8.1 mph 87% 0 in 0.00 W/m2 unknown
04:24 64.4 °F 60.8 °F 29.9 in West 3.1 mph 5 mph 87% 0 in 0.00 W/m2 unknown
04:29 64.4 °F 60.8 °F 29.9 in West 1.2 mph 3.1 mph 87% 0 in 0.00 W/m2 unknown
04:34 64.4 °F 60.8 °F 29.9 in NW 3.1 mph 3.7 mph 88% 0 in 0.00 W/m2 unknown
04:39 64.4 °F 60.8 °F 29.9 in WNW 3.1 mph 5 mph 88% 0 in 0.00 W/m2 unknown
04:44 64.4 °F 60.8 °F 29.9 in NW 2.5 mph 5 mph 88% 0 in 0.00 W/m2 unknown
04:49 64.4 °F 60.8 °F 29.9 in NNW 3.1 mph 5 mph 88% 0 in 0.00 W/m2 unknown
04:54 64.4 °F 60.8 °F 29.9 in NW 3.7 mph 6.2 mph 89% 0 in 0.00 W/m2 unknown
04:59 64.4 °F 60.8 °F 29.9 in WNW 4.3 mph 6.2 mph 88% 0 in 0.00 W/m2 unknown
05:04 64.4 °F 60.8 °F 29.9 in WNW 3.7 mph 6.2 mph 89% 0 in 0.00 W/m2 unknown
05:09 64.4 °F 60.8 °F 29.9 in WNW 4.3 mph 6.2 mph 89% 0 in 0.00 W/m2 unknown
05:14 64.4 °F 60.8 °F 29.9 in WNW 6.2 mph 8.1 mph 89% 0 in 0.00 W/m2 unknown
05:19 64.4 °F 60.8 °F 29.9 in WNW 5.6 mph 8.1 mph 89% 0 in 0.00 W/m2 unknown
05:24 64.4 °F 60.8 °F 29.9 in WNW 5.6 mph 8.1 mph 89% 0 in 0.00 W/m2 unknown
05:29 64.4 °F 60.8 °F 29.9 in West 5 mph 6.8 mph 89% 0 in 0.00 W/m2 unknown
05:34 64.4 °F 60.8 °F 29.9 in West 4.3 mph 6.2 mph 90% 0 in 0.00 W/m2 unknown
05:39 64.4 °F 60.8 °F 29.9 in WNW 5 mph 6.2 mph 90% 0 in 0.00 W/m2 unknown
05:44 64.4 °F 60.8 °F 29.9 in WNW 5.6 mph 6.8 mph 90% 0 in 0.00 W/m2 unknown
05:49 64.4 °F 60.8 °F 29.9 in West 6.2 mph 6.8 mph 89% 0 in 0.00 W/m2 unknown
05:54 64.4 °F 60.8 °F 29.9 in West 5 mph 6.2 mph 89% 0 in 0.00 W/m2 unknown
05:59 64.4 °F 60.8 °F 29.9 in WNW 3.1 mph 6.2 mph 89% 0 in 0.00 W/m2 unknown
06:04 64.4 °F 60.8 °F 29.9 in West 3.7 mph 5 mph 89% 0 in 0.00 W/m2 unknown
06:09 64.4 °F 60.8 °F 29.9 in West 3.7 mph 5 mph 89% 0 in 0.00 W/m2 unknown
06:14 64.4 °F 60.8 °F 29.9 in WSW 2.5 mph 3.7 mph 89% 0 in 0.00 W/m2 unknown
06:18 64.4 °F 60.8 °F 29.9 in West 2.5 mph 3.7 mph 89% 0 in 0.00 W/m2 unknown
06:24 62.6 °F 60.8 °F 29.9 in West 2.5 mph 3.7 mph 90% 0 in 5.00 W/m2 unknown
06:29 62.6 °F 60.8 °F 29.9 in West 1.9 mph 3.7 mph 90% 0 in 7.00 W/m2 unknown
06:34 62.6 °F 60.8 °F 29.9 in West 1.9 mph 3.1 mph 90% 0 in 11.00 W/m2 unknown
06:39 62.6 °F 60.8 °F 29.9 in West 2.5 mph 3.7 mph 90% 0 in 12.00 W/m2 unknown
06:44 62.6 °F 60.8 °F 29.9 in WNW 2.5 mph 3.7 mph 90% 0 in 14.00 W/m2 unknown
06:49 62.6 °F 60.8 °F 29.9 in WNW 1.9 mph 3.7 mph 90% 0 in 16.00 W/m2 unknown
06:54 62.6 °F 60.8 °F 29.9 in WNW 1.2 mph 3.1 mph 90% 0 in 19.00 W/m2 unknown
06:59 62.6 °F 60.8 °F 29.9 in WNW 1.9 mph 2.5 mph 90% 0 in 25.00 W/m2 unknown
07:04 64.4 °F 60.8 °F 29.9 in NW 2.5 mph 3.7 mph 90% 0 in 33.00 W/m2 unknown
07:09 64.4 °F 60.8 °F 29.9 in WNW 2.5 mph 3.7 mph 89% 0 in 39.00 W/m2 unknown
07:14 64.4 °F 60.8 °F 29.9 in West 2.5 mph 3.7 mph 89% 0 in 51.00 W/m2 unknown
07:19 64.4 °F 60.8 °F 29.9 in WSW 3.7 mph 3.7 mph 89% 0 in 62.00 W/m2 unknown
07:24 64.4 °F 60.8 °F 29.9 in West 3.7 mph 3.7 mph 89% 0 in 70.00 W/m2 unknown
07:29 64.4 °F 60.8 °F 29.9 in WNW 2.5 mph 3.7 mph 89% 0 in 83.00 W/m2 unknown
07:34 66.2 °F 60.8 °F 29.9 in WNW 3.1 mph 3.7 mph 88% 0 in 97.00 W/m2 unknown
07:39 66.2 °F 62.6 °F 29.9 in West 1.9 mph 3.7 mph 87% 0 in 111.00 W/m2 unknown
07:44 66.2 °F 62.6 °F 29.9 in WNW 3.1 mph 3.7 mph 86% 0 in 127.00 W/m2 unknown
07:49 66.2 °F 62.6 °F 29.9 in West 3.1 mph 3.7 mph 85% 0 in 142.00 W/m2 unknown
07:54 66.2 °F 62.6 °F 29.9 in WSW 3.1 mph 3.7 mph 86% 0 in 160.00 W/m2 unknown
07:59 66.2 °F 62.6 °F 29.9 in WSW 3.1 mph 3.7 mph 86% 0 in 171.00 W/m2 unknown
08:04 68 °F 62.6 °F 29.9 in WSW 3.1 mph 3.7 mph 86% 0 in 185.00 W/m2 unknown
08:09 68 °F 62.6 °F 29.9 in WSW 3.7 mph 5 mph 85% 0 in 199.00 W/m2 unknown
08:14 68 °F 62.6 °F 29.9 in West 3.7 mph 5 mph 85% 0 in 213.00 W/m2 unknown
08:19 68 °F 62.6 °F 29.9 in West 3.1 mph 5 mph 84% 0 in 225.00 W/m2 unknown
08:24 68 °F 62.6 °F 29.9 in West 3.7 mph 5 mph 83% 0 in 241.00 W/m2 unknown
08:29 68 °F 62.6 °F 29.9 in West 4.3 mph 5 mph 82% 0 in 255.00 W/m2 unknown
08:34 69.8 °F 62.6 °F 29.9 in WNW 3.7 mph 5 mph 81% 0 in 267.00 W/m2 unknown
08:39 69.8 °F 62.6 °F 29.9 in WNW 4.3 mph 5 mph 81% 0 in 283.00 W/m2 unknown
08:44 69.8 °F 62.6 °F 29.9 in West 3.7 mph 5 mph 77% 0 in 297.00 W/m2 unknown
08:49 69.8 °F 62.6 °F 29.9 in WNW 2.5 mph 5 mph 77% 0 in 311.00 W/m2 unknown
08:54 71.6 °F 62.6 °F 29.9 in WNW 3.1 mph 5 mph 77% 0 in 327.00 W/m2 unknown
08:59 71.6 °F 62.6 °F 29.9 in WNW 3.7 mph 6.2 mph 77% 0 in 341.00 W/m2 unknown
09:04 71.6 °F 64.4 °F 29.9 in NW 3.1 mph 6.2 mph 77% 0 in 357.00 W/m2 unknown
09:09 71.6 °F 64.4 °F 29.9 in NW 3.7 mph 5 mph 76% 0 in 369.00 W/m2 unknown
09:14 71.6 °F 64.4 °F 29.9 in NNW 3.1 mph 5 mph 76% 0 in 383.00 W/m2 unknown
09:19 73.4 °F 64.4 °F 29.9 in NNW 3.1 mph 5 mph 75% 0 in 397.00 W/m2 unknown
09:24 73.4 °F 64.4 °F 29.9 in WNW 2.5 mph 5 mph 74% 0 in 411.00 W/m2 unknown
09:29 73.4 °F 64.4 °F 29.9 in WNW 5 mph 6.2 mph 72% 0 in 427.00 W/m2 unknown
09:34 73.4 °F 64.4 °F 29.9 in WNW 3.1 mph 6.2 mph 72% 0 in 441.00 W/m2 unknown
09:39 73.4 °F 64.4 °F 29.9 in NW 3.1 mph 3.7 mph 73% 0 in 454.00 W/m2 unknown
09:44 75.2 °F 64.4 °F 29.9 in NNW 3.7 mph 5 mph 73% 0 in 466.00 W/m2 unknown
09:49 75.2 °F 64.4 °F 29.9 in NNW 3.7 mph 6.2 mph 71% 0 in 476.00 W/m2 unknown
09:54 75.2 °F 64.4 °F 29.9 in NW 2.5 mph 6.2 mph 70% 0 in 492.00 W/m2 unknown
09:59 75.2 °F 64.4 °F 29.9 in NW 2.5 mph 3.7 mph 69% 0 in 508.00 W/m2 unknown
10:04 75.2 °F 64.4 °F 29.9 in North 3.1 mph 5 mph 69% 0 in 520.00 W/m2 unknown
10:09 75.2 °F 64.4 °F 29.9 in NW 3.1 mph 5 mph 69% 0 in 531.00 W/m2 unknown
10:14 75.2 °F 64.4 °F 29.9 in NNE 2.5 mph 3.7 mph 67% 0 in 545.00 W/m2 unknown
10:19 75.2 °F 64.4 °F 29.9 in East 2.5 mph 3.7 mph 68% 0 in 557.00 W/m2 unknown
10:24 77 °F 64.4 °F 29.9 in South 0.6 mph 3.1 mph 69% 0 in 570.00 W/m2 unknown
10:29 77 °F 64.4 °F 29.9 in WNW 1.9 mph 3.7 mph 65% 0 in 582.00 W/m2 unknown
10:34 77 °F 64.4 °F 29.9 in NNW 1.9 mph 3.7 mph 66% 0 in 592.00 W/m2 unknown
10:39 77 °F 62.6 °F 29.9 in West 3.1 mph 3.7 mph 63% 0 in 605.00 W/m2 unknown
10:44 77 °F 64.4 °F 29.9 in West 5 mph 6.2 mph 63% 0 in 617.00 W/m2 unknown
10:49 77 °F 62.6 °F 29.9 in West 5.6 mph 6.2 mph 60% 0 in 624.00 W/m2 unknown
10:54 77 °F 62.6 °F 29.9 in WSW 5 mph 6.2 mph 61% 0 in 638.00 W/m2 unknown
10:59 77 °F 62.6 °F 29.9 in SW 3.1 mph 6.2 mph 62% 0 in 647.00 W/m2 unknown
11:04 77 °F 62.6 °F 29.9 in WSW 5.6 mph 6.8 mph 61% 0 in 661.00 W/m2 unknown
11:09 77 °F 62.6 °F 29.9 in SW 3.1 mph 6.8 mph 58% 0 in 666.00 W/m2 unknown
11:14 78.8 °F 62.6 °F 29.9 in WSW 6.8 mph 10.6 mph 57% 0 in 680.00 W/m2 unknown
11:19 78.8 °F 60.8 °F 29.9 in West 5 mph 9.9 mph 53% 0 in 689.00 W/m2 unknown
11:24 78.8 °F 60.8 °F 29.9 in West 5.6 mph 6.8 mph 54% 0 in 696.00 W/m2 unknown
11:29 78.8 °F 60.8 °F 29.9 in WNW 5.6 mph 6.8 mph 55% 0 in 705.00 W/m2 unknown
11:34 80.6 °F 62.6 °F 29.9 in WNW 5 mph 6.8 mph 56% 0 in 715.00 W/m2 unknown
11:39 80.6 °F 60.8 °F 29.9 in WNW 7.5 mph 10.6 mph 53% 0 in 724.00 W/m2 unknown
11:44 80.6 °F 59 °F 29.9 in WNW 7.5 mph 10.6 mph 49% 0 in 733.00 W/m2 unknown
11:49 80.6 °F 59 °F 29.9 in NNW 6.2 mph 9.9 mph 48% 0 in 740.00 W/m2 unknown
11:54 80.6 °F 59 °F 29.9 in WNW 5 mph 6.8 mph 48% 0 in 747.00 W/m2 unknown
11:59 80.6 °F 59 °F 29.9 in WNW 5 mph 8.1 mph 49% 0 in 754.00 W/m2 unknown
12:04 80.6 °F 59 °F 29.9 in NNW 5 mph 8.1 mph 48% 0 in 759.00 W/m2 unknown
12:09 80.6 °F 60.8 °F 29.9 in NE 2.5 mph 8.1 mph 51% 0 in 766.00 W/m2 unknown
12:14 80.6 °F 60.8 °F 29.9 in North 3.1 mph 5 mph 52% 0 in 772.00 W/m2 unknown
12:19 82.4 °F 60.8 °F 29.9 in NNW 3.1 mph 5 mph 50% 0 in 780.00 W/m2 unknown
12:24 82.4 °F 60.8 °F 29.9 in NNE 2.5 mph 5 mph 50% 0 in 766.00 W/m2 unknown
12:29 82.4 °F 60.8 °F 29.9 in WSW 4.3 mph 5 mph 50% 0 in 564.00 W/m2 unknown
12:34 82.4 °F 60.8 °F 29.9 in NNW 4.3 mph 6.8 mph 48% 0 in 218.00 W/m2 unknown
12:39 82.4 °F 60.8 °F 29.9 in WSW 4.3 mph 6.8 mph 48% 0 in 633.00 W/m2 unknown
12:44 82.4 °F 62.6 °F 29.9 in West 3.7 mph 6.2 mph 52% 0 in 803.00 W/m2 unknown
12:49 82.4 °F 60.8 °F 29.9 in North 4.3 mph 6.2 mph 49% 0 in 807.00 W/m2 unknown
12:54 82.4 °F 59 °F 29.9 in NNE 5 mph 6.2 mph 46% 0 in 812.00 W/m2 unknown
12:59 82.4 °F 59 °F 29.9 in ENE 4.3 mph 5 mph 45% 0 in 814.00 W/m2 unknown
13:04 80.6 °F 59 °F 29.9 in ESE 6.2 mph 8.1 mph 46% 0 in 816.00 W/m2 unknown
13:09 80.6 °F 59 °F 29.9 in SSE 5 mph 8.1 mph 47% 0 in 823.00 W/m2 unknown
13:14 82.4 °F 62.6 °F 29.9 in SE 2.5 mph 5 mph 51% 0 in 826.00 W/m2 unknown
13:19 82.4 °F 60.8 °F 29.9 in South 3.1 mph 5 mph 48% 0 in 830.00 W/m2 unknown
13:24 82.4 °F 60.8 °F 29.9 in SE 3.1 mph 5 mph 47% 0 in 830.00 W/m2 unknown
13:29 82.4 °F 59 °F 29.9 in NW 1.9 mph 3.7 mph 45% 0 in 833.00 W/m2 unknown
13:34 82.4 °F 60.8 °F 29.9 in East 5 mph 9.3 mph 47% 0 in 833.00 W/m2 unknown
13:39 82.4 °F 59 °F 29.9 in SW 5 mph 8.7 mph 46% 0 in 833.00 W/m2 unknown
13:44 82.4 °F 60.8 °F 29.9 in South 3.1 mph 6.2 mph 48% 0 in 831.00 W/m2 unknown
13:49 82.4 °F 60.8 °F 29.9 in WSW 5 mph 6.2 mph 48% 0 in 831.00 W/m2 unknown
13:54 82.4 °F 60.8 °F 29.9 in West 5.6 mph 6.8 mph 47% 0 in 828.00 W/m2 unknown
13:59 82.4 °F 60.8 °F 29.9 in NW 5.6 mph 6.8 mph 49% 0 in 828.00 W/m2 unknown
14:04 82.4 °F 60.8 °F 29.9 in West 6.8 mph 8.1 mph 48% 0 in 826.00 W/m2 unknown
14:09 82.4 °F 60.8 °F 29.9 in SSW 6.2 mph 8.1 mph 47% 0 in 823.00 W/m2 unknown
14:14 82.4 °F 62.6 °F 29.9 in SE 5 mph 6.8 mph 50% 0 in 823.00 W/m2 unknown
14:19 82.4 °F 60.8 °F 29.9 in South 4.3 mph 6.8 mph 48% 0 in 819.00 W/m2 unknown
14:24 84.2 °F 60.8 °F 29.9 in SSE 4.3 mph 8.1 mph 48% 0 in 812.00 W/m2 unknown
14:29 84.2 °F 60.8 °F 29.9 in East 4.3 mph 8.1 mph 48% 0 in 814.00 W/m2 unknown
14:34 82.4 °F 60.8 °F 29.9 in SE 6.2 mph 9.3 mph 48% 0 in 814.00 W/m2 unknown
14:39 82.4 °F 60.8 °F 29.9 in SE 6.2 mph 8.7 mph 47% 0 in 807.00 W/m2 unknown
14:44 84.2 °F 60.8 °F 29.9 in SSE 5.6 mph 10.6 mph 47% 0 in 803.00 W/m2 unknown
14:49 84.2 °F 60.8 °F 29.9 in South 3.1 mph 9.9 mph 47% 0 in 800.00 W/m2 unknown
14:54 84.2 °F 60.8 °F 29.9 in SE 4.3 mph 6.8 mph 46% 0 in 796.00 W/m2 unknown
14:59 84.2 °F 60.8 °F 29.9 in SSE 3.1 mph 6.2 mph 46% 0 in 788.00 W/m2 unknown
15:04 84.2 °F 59 °F 29.9 in SE 4.3 mph 6.2 mph 43% 0 in 784.00 W/m2 unknown
15:09 82.4 °F 59 °F 29.9 in East 5 mph 6.2 mph 45% 0 in 780.00 W/m2 unknown
15:14 84.2 °F 59 °F 29.9 in South 4.3 mph 6.2 mph 45% 0 in 773.00 W/m2 unknown
15:19 84.2 °F 59 °F 29.9 in East 5 mph 6.8 mph 45% 0 in 766.00 W/m2 unknown
15:24 84.2 °F 59 °F 29.9 in SSE 3.1 mph 6.8 mph 45% 0 in 756.00 W/m2 unknown
15:29 84.2 °F 60.8 °F 29.9 in East 3.7 mph 6.8 mph 45% 0 in 749.00 W/m2 unknown
15:34 84.2 °F 59 °F 29.9 in East 3.1 mph 6.8 mph 43% 0 in 740.00 W/m2 unknown
15:39 84.2 °F 60.8 °F 29.9 in NNE 3.1 mph 5 mph 47% 0 in 733.00 W/m2 unknown
15:44 84.2 °F 59 °F 29.9 in East 5.6 mph 8.1 mph 44% 0 in 726.00 W/m2 unknown
15:49 84.2 °F 59 °F 29.9 in ENE 5 mph 8.1 mph 44% 0 in 714.00 W/m2 unknown
15:54 84.2 °F 62.6 °F 29.9 in NNE 3.7 mph 8.1 mph 47% 0 in 707.00 W/m2 unknown
15:59 84.2 °F 60.8 °F 29.9 in ENE 3.1 mph 6.2 mph 46% 0 in 696.00 W/m2 unknown
16:04 84.2 °F 60.8 °F 29.9 in NNW 2.5 mph 5 mph 45% 0 in 689.00 W/m2 unknown
16:09 84.2 °F 59 °F 29.9 in East 4.3 mph 6.8 mph 44% 0 in 677.00 W/m2 unknown
16:14 84.2 °F 60.8 °F 29.9 in NE 3.1 mph 6.8 mph 45% 0 in 666.00 W/m2 unknown
16:19 84.2 °F 60.8 °F 29.9 in ENE 5 mph 6.8 mph 44% 0 in 656.00 W/m2 unknown
16:24 84.2 °F 59 °F 29.9 in ESE 5 mph 6.8 mph 44% 0 in 645.00 W/m2 unknown
16:29 84.2 °F 59 °F 29.9 in East 5 mph 6.8 mph 44% 0 in 633.00 W/m2 unknown
16:34 84.2 °F 59 °F 29.9 in NE 5 mph 8.1 mph 43% 0 in 624.00 W/m2 unknown
16:39 84.2 °F 60.8 °F 29.9 in NE 5 mph 8.1 mph 45% 0 in 613.00 W/m2 unknown
16:44 84.2 °F 60.8 °F 29.9 in East 4.3 mph 8.1 mph 46% 0 in 598.00 W/m2 unknown
16:49 84.2 °F 60.8 °F 29.9 in ESE 5 mph 6.8 mph 46% 0 in 587.00 W/m2 unknown
16:54 84.2 °F 59 °F 29.9 in South 3.1 mph 6.8 mph 44% 0 in 568.00 W/m2 unknown
16:59 84.2 °F 60.8 °F 29.9 in East 5.6 mph 6.8 mph 46% 0 in 555.00 W/m2 unknown
17:04 84.2 °F 59 °F 29.9 in SE 5 mph 6.8 mph 44% 0 in 547.00 W/m2 unknown
17:09 84.2 °F 59 °F 29.9 in SE 3.7 mph 8.1 mph 44% 0 in 536.00 W/m2 unknown
17:14 84.2 °F 59 °F 29.9 in ESE 3.7 mph 8.1 mph 44% 0 in 520.00 W/m2 unknown
17:19 84.2 °F 59 °F 29.9 in East 3.7 mph 8.1 mph 44% 0 in 504.00 W/m2 unknown
17:24 84.2 °F 59 °F 29.9 in ESE 2.5 mph 5 mph 44% 0 in 496.00 W/m2 unknown
17:29 84.2 °F 59 °F 29.9 in SSW 3.1 mph 5 mph 42% 0 in 480.00 W/m2 unknown
17:34 84.2 °F 60.8 °F 29.9 in SW 2.5 mph 5 mph 47% 0 in 466.00 W/m2 unknown
17:39 84.2 °F 60.8 °F 29.9 in SE 4.3 mph 6.8 mph 44% 0 in 438.00 W/m2 unknown
17:44 84.2 °F 60.8 °F 29.9 in SSE 5 mph 6.8 mph 45% 0 in 422.00 W/m2 unknown
17:49 84.2 °F 60.8 °F 29.9 in SSW 4.3 mph 6.8 mph 44% 0 in 95.00 W/m2 unknown
17:54 84.2 °F 59 °F 29.9 in SSW 3.1 mph 6.2 mph 44% 0 in 406.00 W/m2 unknown
17:59 84.2 °F 59 °F 29.9 in ESE 3.1 mph 5 mph 44% 0 in 396.00 W/m2 unknown
18:04 84.2 °F 60.8 °F 29.9 in SSW 4.3 mph 6.8 mph 45% 0 in 383.00 W/m2 unknown
18:09 84.2 °F 60.8 °F 29.9 in SW 5 mph 6.8 mph 44% 0 in 367.00 W/m2 unknown
18:14 84.2 °F 60.8 °F 29.9 in SW 3.1 mph 6.2 mph 44% 0 in 352.00 W/m2 unknown
18:19 84.2 °F 59 °F 29.9 in SW 3.7 mph 6.2 mph 42% 0 in 338.00 W/m2 unknown
18:24 84.2 °F 59 °F 29.9 in SW 3.7 mph 6.2 mph 42% 0 in 325.00 W/m2 unknown
18:29 84.2 °F 59 °F 29.9 in SSE 5 mph 6.2 mph 44% 0 in 309.00 W/m2 unknown
18:34 84.2 °F 60.8 °F 29.9 in ESE 5 mph 6.2 mph 46% 0 in 294.00 W/m2 unknown
18:39 82.4 °F 60.8 °F 29.9 in SE 3.1 mph 6.2 mph 47% 0 in 278.00 W/m2 unknown
18:44 84.2 °F 59 °F 29.9 in SSE 3.1 mph 6.2 mph 45% 0 in 265.00 W/m2 unknown
18:49 84.2 °F 59 °F 29.9 in South 2.5 mph 3.7 mph 45% 0 in 248.00 W/m2 unknown
18:54 84.2 °F 59 °F 29.9 in SSE 1.9 mph 3.7 mph 44% 0 in 234.00 W/m2 unknown
18:59 84.2 °F 59 °F 29.9 in ESE 1.9 mph 3.1 mph 44% 0 in 218.00 W/m2 unknown
19:04 84.2 °F 59 °F 29.9 in ESE 1.9 mph 3.7 mph 45% 0 in 204.00 W/m2 unknown
19:09 82.4 °F 60.8 °F 29.9 in ESE 1.2 mph 3.1 mph 47% 0 in 186.00 W/m2 unknown
19:14 82.4 °F 60.8 °F 29.9 in ESE 3.1 mph 3.7 mph 49% 0 in 167.00 W/m2 unknown
19:19 82.4 °F 60.8 °F 29.9 in ESE 3.1 mph 3.7 mph 50% 0 in 151.00 W/m2 unknown
19:24 82.4 °F 60.8 °F 29.9 in ESE 1.9 mph 3.1 mph 50% 0 in 134.00 W/m2 unknown
19:29 82.4 °F 60.8 °F 29.9 in ESE 1.9 mph 3.7 mph 49% 0 in 120.00 W/m2 unknown
19:34 82.4 °F 60.8 °F 29.9 in ESE 1.9 mph 3.7 mph 50% 0 in 102.00 W/m2 unknown
19:39 80.6 °F 60.8 °F 29.9 in ESE 1.9 mph 3.1 mph 51% 0 in 86.00 W/m2 unknown
19:44 80.6 °F 60.8 °F 29.9 in ESE 1.2 mph 1.9 mph 51% 0 in 25.00 W/m2 unknown
19:49 80.6 °F 60.8 °F 29.9 in ESE 1.2 mph 2.5 mph 51% 0 in 23.00 W/m2 unknown
19:54 80.6 °F 60.8 °F 29.9 in ESE 0.6 mph 1.9 mph 52% 0 in 21.00 W/m2 unknown
19:59 80.6 °F 62.6 °F 29.9 in ESE 1.2 mph 2.5 mph 53% 0 in 19.00 W/m2 unknown
20:04 80.6 °F 62.6 °F 29.9 in ESE 1.2 mph 1.9 mph 56% 0 in 18.00 W/m2 unknown
20:09 78.8 °F 64.4 °F 29.9 in Calm   1.2 mph 59% 0 in 14.00 W/m2 unknown
20:14 78.8 °F 64.4 °F 29.9 in ESE 0.6 mph 1.2 mph 59% 0 in 12.00 W/m2 unknown
20:19 78.8 °F 64.4 °F 29.9 in ESE 1.2 mph 1.2 mph 61% 0 in 9.00 W/m2 unknown
20:24 77 °F 62.6 °F 29.9 in ESE 0.6 mph 1.2 mph 59% 0 in 7.00 W/m2 unknown
20:29 77 °F 62.6 °F 29.9 in ESE 0.6 mph 1.2 mph 60% 0 in 0.00 W/m2 unknown
20:34 77 °F 62.6 °F 29.9 in ESE 0.6 mph 1.2 mph 62% 0 in 0.00 W/m2 unknown
20:39 77 °F 62.6 °F 29.9 in ESE 0.6 mph 1.2 mph 63% 0 in 0.00 W/m2 unknown
20:44 77 °F 62.6 °F 29.9 in ESE 1.2 mph 1.2 mph 64% 0 in 0.00 W/m2 unknown
20:49 77 °F 62.6 °F 29.9 in ESE 1.2 mph 1.2 mph 64% 0 in 0.00 W/m2 unknown
20:54 75.2 °F 62.6 °F 29.9 in Calm   1.2 mph 63% 0 in 0.00 W/m2 unknown
20:59 75.2 °F 62.6 °F 29.9 in Calm     64% 0 in 0.00 W/m2 unknown
21:04 75.2 °F 62.6 °F 29.9 in Calm     64% 0 in 0.00 W/m2 unknown
21:09 75.2 °F 60.8 °F 29.9 in ESE 1.2 mph 2.5 mph 63% 0 in 0.00 W/m2 unknown
21:14 75.2 °F 60.8 °F 29.9 in ESE 1.2 mph 1.9 mph 64% 0 in 0.00 W/m2 unknown
21:19 75.2 °F 60.8 °F 29.9 in ESE 1.2 mph 1.2 mph 64% 0 in 0.00 W/m2 unknown
21:24 73.4 °F 60.8 °F 29.9 in ESE 1.2 mph 1.2 mph 64% 0 in 0.00 W/m2 unknown
21:29 73.4 °F 60.8 °F 29.9 in Calm   1.2 mph 64% 0 in 0.00 W/m2 unknown
21:34 73.4 °F 60.8 °F 29.9 in Calm     65% 0 in 0.00 W/m2 unknown
21:39 73.4 °F 60.8 °F 29.9 in Calm     66% 0 in 0.00 W/m2 unknown
21:44 73.4 °F 62.6 °F 29.9 in ESE 0.6 mph 1.2 mph 67% 0 in 0.00 W/m2 unknown
21:49 73.4 °F 62.6 °F 29.9 in ESE 1.2 mph 2.5 mph 67% 0 in 0.00 W/m2 unknown
21:54 73.4 °F 60.8 °F 29.9 in ESE 1.2 mph 2.5 mph 67% 0 in 0.00 W/m2 unknown
21:59 73.4 °F 62.6 °F 29.9 in ESE 1.2 mph 2.5 mph 69% 0 in 0.00 W/m2 unknown
22:04 73.4 °F 62.6 °F 29.9 in ESE 1.2 mph 2.5 mph 69% 0 in 0.00 W/m2 unknown
22:09 71.6 °F 62.6 °F 29.9 in SSE 1.2 mph 1.9 mph 72% 0 in 0.00 W/m2 unknown
22:14 71.6 °F 64.4 °F 29.9 in SW 1.9 mph 2.5 mph 75% 0 in 0.00 W/m2 unknown
22:19 71.6 °F 64.4 °F 29.9 in SW 1.2 mph 2.5 mph 75% 0 in 0.00 W/m2 unknown
22:24 71.6 °F 64.4 °F 29.9 in SE 1.9 mph 2.5 mph 75% 0 in 0.00 W/m2 unknown
22:29 71.6 °F 64.4 °F 29.9 in East 1.2 mph 2.5 mph 74% 0 in 0.00 W/m2 unknown
22:34 71.6 °F 62.6 °F 29.9 in East 1.2 mph 1.9 mph 74% 0 in 0.00 W/m2 unknown
22:39 71.6 °F 64.4 °F 29.9 in East 1.9 mph 3.1 mph 74% 0 in 0.00 W/m2 unknown
22:44 73.4 °F 62.6 °F 29.9 in East 1.9 mph 3.7 mph 73% 0 in 0.00 W/m2 unknown
22:49 73.4 °F 62.6 °F 29.9 in East 2.5 mph 3.7 mph 72% 0 in 0.00 W/m2 unknown
22:54 73.4 °F 62.6 °F 29.9 in East 3.7 mph 6.2 mph 69% 0 in 0.00 W/m2 unknown
22:59 73.4 °F 62.6 °F 29.9 in East 3.1 mph 6.2 mph 67% 0 in 0.00 W/m2 unknown
23:04 73.4 °F 60.8 °F 29.9 in East 3.1 mph 5 mph 65% 0 in 0.00 W/m2 unknown
23:09 73.4 °F 60.8 °F 29.9 in ESE 3.1 mph 5 mph 65% 0 in 0.00 W/m2 unknown
23:14 73.4 °F 60.8 °F 29.9 in ESE 4.3 mph 5 mph 64% 0 in 0.00 W/m2 unknown
23:19 73.4 °F 60.8 °F 29.9 in ESE 3.1 mph 5 mph 65% 0 in 0.00 W/m2 unknown
23:24 73.4 °F 60.8 °F 29.9 in ESE 3.1 mph 5 mph 65% 0 in 0.00 W/m2 unknown
23:29 73.4 °F 60.8 °F 29.9 in SE 3.1 mph 5 mph 65% 0 in 0.00 W/m2 unknown
23:34 73.4 °F 60.8 °F 29.9 in SE 3.1 mph 3.7 mph 65% 0 in 0.00 W/m2 unknown
23:39 73.4 °F 60.8 °F 29.9 in ESE 3.1 mph 3.7 mph 65% 0 in 0.00 W/m2 unknown
23:44 71.6 °F 60.8 °F 29.9 in ESE 3.1 mph 3.7 mph 67% 0 in 0.00 W/m2 unknown
23:49 71.6 °F 60.8 °F 29.9 in ESE 2.5 mph 3.7 mph 67% 0 in 0.00 W/m2 unknown
23:54 71.6 °F 60.8 °F 29.9 in East 3.1 mph 5 mph 67% 0 in 0.00 W/m2 unknown
23:59 71.6 °F 60.8 °F 29.9 in East 2.5 mph 5 mph 68% 0 in 0.00 W/m2 unknown
Stazione Meteorologica MeteoMincio Rivalta s/M (MN)
Con i complimenti di Weather Underground - 4 mb



METEO PILLOLE
Il disastro meteorologico più costoso
Bahamas, Florida e Louisiana
Nel 1992 il piccolo ma distruttivo uragano Andrew provoca danni valutati in 25 miliardi di dollari.
Share

Non seguire questo link o sarai bannato dal sito!